Find Starlink 3866

NORAD ID: 52500 Int'l Des: 2022-049 Owner: SPXS Country: US Constellation: starlink operational
LEOCIRCULAR

实时位置

正在加载3D地球...

关于 Starlink 3866

正在加载描述...

即将过境

Passes for default location (London). Set your location on the main map for personalized predictions.

高度历史

Loading altitude history...

两行轨道根数

1 52500U 22049BB 26104.62416588 .00000572 00000-0 54035-4 0 9997
2 52500 53.2162 237.8019 0001234 92.6126 267.5008 15.08839808217951
Epoch: Apr 14, 2026 • Age: 10 hours

当前状态

高度 548.0 km
速度 7.59 km/s
星下点 -26.55°S, 147.5°W
发射日期 May 6, 2022
运行时间 3.9 years
类型 internet

技术详情

分类 Payload
质量 297.00 kg
干质量 220.00 kg
总质量 297.00 kg
长度 0.20 m
直径 2.80 m
跨度 9.00 m
形状 Box + pan
制造商 SPXS
平台类型 Starlink
阶段状态 In Orbit
所有者/国家 SPXS/US

Most Searched